Watertown, NY

7:15 PM EDT on October 19, 2019 (GMT -0400)
Watertown International

Weather History for KART - September, 2019

Change the Weather History Date:

Thursday, September 19, 2019

  Actual Average Record
Temperature  
Mean Temperature 55 °F 58 °F  
Max Temperature 71 °F 69 °F 84 °F (2003)
Min Temperature 39 °F 47 °F 29 °F (2009)
Degree Days  
Heating Degree Days 10 8  
Month to date heating degree days 111 95  
Since 1 July heating degree days 140 167  
Cooling Degree Days 0 1  
Month to date cooling degree days 8 29  
Year to date cooling degree days 329 353  
Growing Degree Days 4 (Base 50)    
Moisture  
Dew Point 46 °F    
Average Humidity 74    
Maximum Humidity 100    
Minimum Humidity 47    
Precipitation  
Precipitation 0.00 in 0.13 in 0.85 in (1971)
Month to date precipitation 2.49 2.20  
Year to date precipitation 30.58 24.00  
Sea Level Pressure  
Sea Level Pressure 30.27 in    
Wind  
Wind Speed 4 mph (WNW)    
Max Wind Speed 14 mph    
Max Gust Speed 15 mph    
Visibility 9 miles    
Events      
T = Trace of Precipitation, MM = Missing Value Source: NWS Daily Summary

Daily Weather History Graph

Daily Weather History Graph

Search for Another Location

Airport or City:

Astronomy

Sep. 19, 2019 Rise Set
Actual Time 6:47 AM EDT 7:07 PM EDT
Civil Twilight 6:18 AM EDT 7:36 PM EDT
Nautical Twilight 5:44 AM EDT 8:10 PM EDT
Astronomical Twilight 5:09 AM EDT 8:45 PM EDT
Moon 10:04 PM EDT 11:58 AM EDT
Length of Visible Light 13h 17m
Length of Day
12h 19m
Waning Gibbous, 74% of the Moon is Illuminated
Sep 19
Waning Gibbous
Sep 21
Last Quarter
Sep 28
New
Oct 5
First Quarter
Oct 13
Full

Hourly Weather History & Observations

Time (EDT) Temp. Windchill Dew Point Humidity Pressure Visibility Wind Dir Wind Speed Gust Speed Precip Events Conditions
12:56 AM 45.0 °F 42.6 °F 43.0 °F 93% 30.28 in 10.0 mi SSE 4.6 mph - N/A   Clear
1:56 AM 46.9 °F - 44.1 °F 90% 30.29 in 10.0 mi Calm Calm - N/A   Clear
2:56 AM 45.0 °F - 43.0 °F 93% 30.29 in 10.0 mi Calm Calm - N/A   Clear
3:56 AM 43.0 °F 41.3 °F 39.9 °F 89% 30.30 in 10.0 mi NNE 3.5 mph - N/A   Clear
4:56 AM 42.1 °F 40.2 °F 39.9 °F 92% 30.29 in 10.0 mi NE 3.5 mph - N/A   Clear
5:56 AM 41.0 °F 39.0 °F 39.0 °F 93% 30.30 in 10.0 mi ENE 3.5 mph - N/A   Clear
6:56 AM 39.9 °F 36.7 °F 39.0 °F 97% 30.31 in 10.0 mi East 4.6 mph - N/A   Clear
7:56 AM 46.0 °F 44.8 °F 43.0 °F 89% 30.32 in 10.0 mi NE 3.5 mph - N/A   Clear
8:56 AM 55.0 °F - 48.9 °F 80% 30.32 in 10.0 mi Calm Calm - N/A   Clear
9:56 AM 63.0 °F - 48.0 °F 58% 30.32 in 10.0 mi SW 6.9 mph - N/A   Clear
10:56 AM 66.0 °F - 48.0 °F 52% 30.32 in 10.0 mi WSW 4.6 mph - N/A   Clear
11:56 AM 68.0 °F - 50.0 °F 52% 30.30 in 10.0 mi West 9.2 mph - N/A   Clear
12:56 PM 70.0 °F - 48.9 °F 47% 30.29 in 10.0 mi West 6.9 mph - N/A   Clear
1:56 PM 70.0 °F - 48.9 °F 47% 30.29 in 10.0 mi West 11.5 mph - N/A   Clear
2:56 PM 70.0 °F - 50.0 °F 49% 30.28 in 10.0 mi West 10.4 mph - N/A   Clear
3:56 PM 70.0 °F - 48.0 °F 46% 30.26 in 10.0 mi WNW 6.9 mph - N/A   Clear
4:56 PM 70.0 °F - 48.0 °F 46% 30.25 in 10.0 mi Calm Calm - N/A   Clear
5:56 PM 69.1 °F - 48.9 °F 49% 30.25 in 10.0 mi West 3.5 mph - N/A   Clear
6:56 PM 60.1 °F - 52.0 °F 75% 30.25 in 10.0 mi Calm Calm - N/A   Clear
7:56 PM 54.0 °F - 51.1 °F 90% 30.24 in 10.0 mi SE 3.5 mph - N/A   Clear
8:56 PM 51.1 °F - 48.9 °F 92% 30.24 in 10.0 mi Calm Calm - N/A   Clear
9:56 PM 50.0 °F - 48.0 °F 93% 30.24 in 10.0 mi ENE 3.5 mph - N/A   Clear
10:56 PM 48.9 °F - 46.9 °F 93% 30.23 in 10.0 mi Calm Calm - N/A   Clear
11:43 PM 46.9 °F - 46.0 °F 97% 30.23 in 1.8 mi Calm Calm - N/A   Clear
11:53 PM 46.4 °F - 44.6 °F 93% 30.22 in 3.0 mi Calm Calm - N/A   Clear
11:56 PM 46.0 °F - 45.0 °F 96% 30.22 in 8.0 mi Calm Calm - N/A   Clear